Location: Pensacola
(30.4142°N, 87.2155°W)
Time: 03:03:03
(UTC-05:00)

Hubble Space Telescope - Pass Details

Date: 09 February 2023
Orbit: 526 x 530 km, 28.5° (Epoch: 01 April)

Event Time Altitude Azimuth Distance (km) Brightness Sun altitude
Rises 19:13:32 0° 220° (SW) 2,639 4.9 -22.3°
Reaches altitude 10° 19:16:19 10° 201° (SSW) 1,751 3.7 -22.9°
Enters shadow 19:17:59 16° 178° (S) 1,400 2.9 -23.2°
